[[{"header":{"parameterUnit":"m.s-1","parameterCategory":2,"la1":30.2991,"la2":30.254,"lo1":-89.0895,"lo2":-89.0444,"dy":0.0017,"dx":0.0017,"nx":28,"ny":28,"refTime":"2025-03-01T03:00:00:Z","depth":"0","parameterNumber":2,"parameterNumberName":"U-component_of_CURRENTS"},"data":[0,0,0,0,0,0,0,0,0,0,0,0,0,0,0,0,0,0,0,0,0,0,0,0,0,0,0,0,0,0,0,0,0,0,0,0,0,0,0,0,0,0,0,0,0,0,0,0,0,0,0,0,0,0,0,0,0,0,-0.1916,-0.1917,0,-0.1979,-0.198,-0.198,-0.1981,-0.198,-0.1979,-0.1978,-0.2013,-0.2015,-0.2016,0,0,0,0,0,0,0,0,0,0,0,0,0,-0.1788,-0.179,-0.1916,-0.1917,-0.1918,-0.1979,-0.198,-0.1981,-0.1981,-0.198,-0.1979,-0.1978,-0.2012,-0.2014,-0.2016,0,0,0,0,0,0,0,0,0,0,0,0,0,-0.1847,-0.1791,-0.1916,-0.1925,-0.1926,-0.1979,-0.198,-0.1981,-0.1981,-0.198,-0.1979,-0.1978,-0.2012,-0.2014,-0.2017,-0.2058,0,0,-0.2025,-0.2026,0,0,0,0,0,0,0,0,-0.1844,-0.1852,-0.1923,-0.1924,-0.1926,-0.197,-0.1947,-0.2005,-0.1982,-0.1961,-0.1978,-0.1977,-0.1997,-0.2,-0.2016,-0.206,-0.2061,-0.2025,-0.2026,-0.2027,-0.2028,0,0,0,0,0,0,0,-0.184,-0.1849,-0.1942,-0.1924,-0.1926,-0.1922,-0.193,-0.1958,-0.1985,-0.1963,-0.1963,-0.1969,-0.1997,-0.2014,-0.2017,-0.2062,-0.2025,-0.2027,-0.2029,-0.203,-0.2113,-0.2114,0,0,0,0,0,0,-0.1833,-0.1846,-0.194,-0.1943,-0.188,-0.1926,-0.1934,-0.1958,-0.1986,-0.1989,-0.197,-0.1969,-0.201,-0.2014,-0.2018,-0.2042,-0.2027,-0.203,-0.2031,-0.2113,-0.2114,-0.2114,0,0,0,0,0,0,-0.183,-0.1842,-0.1937,-0.1894,-0.1906,-0.1929,-0.1956,-0.196,-0.1972,-0.1991,-0.1994,-0.1978,-0.2009,-0.2015,-0.2045,-0.2044,-0.2031,-0.2033,-0.2112,-0.2113,-0.2114,-0.2107,0,0,0,0,0,0,-0.1827,-0.1841,-0.1857,-0.1894,-0.1908,-0.1964,-0.1958,-0.1962,-0.1978,-0.1977,-0.2,-0.2002,-0.2009,-0.2041,-0.2048,-0.2047,-0.2035,-0.2111,-0.2112,-0.2114,-0.2106,-0.2108,-0.2109,0,0,0,0,0,-0.1822,-0.1849,-0.1858,-0.1869,-0.193,-0.1964,-0.1971,-0.1983,-0.198,-0.1989,-0.2006,-0.2001,-0.2053,-0.2045,-0.2052,-0.2052,-0.211,-0.2112,-0.2113,-0.2106,-0.2107,-0.2109,0,0,0,0,0,0,-0.1804,-0.1853,-0.1863,-0.1904,-0.1929,-0.1964,-0.1976,-0.1986,-0.201,-0.2006,-0.202,-0.2025,-0.2049,-0.2059,-0.2049,-0.208,-0.2077,-0.208,-0.2069,-0.207,-0.2072,-0.2062,-0.2038,0,0,0,0,0,-0.1809,-0.1838,-0.1879,-0.1909,-0.1923,-0.1951,-0.1966,-0.1975,-0.2,-0.2009,-0.2026,-0.2044,-0.2064,-0.2073,-0.2094,-0.212,-0.2119,-0.2123,-0.2124,-0.2125,-0.2123,-0.2119,-0.2119,-0.2119,-0.2119,-0.2119,0,0,-0.1805,-0.1839,-0.1853,-0.1906,-0.1927,-0.1952,-0.1957,-0.1981,-0.1995,-0.201,-0.2037,-0.2054,-0.2074,-0.2098,-0.2108,-0.2103,-0.2127,-0.2127,-0.2127,-0.2125,-0.212,-0.212,-0.212,-0.212,-0.212,-0.212,0,0,-0.1812,-0.1848,-0.1872,-0.1897,-0.1932,-0.1951,-0.1957,-0.1994,-0.2003,-0.2037,-0.2045,-0.2063,-0.2102,-0.211,-0.212,-0.2145,-0.2136,-0.2148,-0.2143,-0.214,-0.2139,-0.2139,-0.2143,-0.2143,-0.2144,-0.2144,-0.2144,0,-0.1806,-0.1848,-0.188,-0.191,-0.1927,-0.195,-0.197,-0.1992,-0.203,-0.204,-0.2041,-0.209,-0.2106,-0.2125,-0.2131,-0.2145,-0.2144,-0.2133,-0.2139,-0.2139,-0.2138,-0.2143,-0.2143,-0.2144,-0.2144,-0.2144,-0.2144,0,-0.1828,-0.1861,-0.1877,-0.1922,-0.1944,-0.1965,-0.1996,-0.2015,-0.2029,-0.2047,-0.2072,-0.2096,-0.2118,-0.2125,-0.2138,-0.2144,-0.2145,-0.2142,-0.213,-0.2137,-0.2143,-0.2143,-0.2144,-0.2144,-0.2144,-0.2144,0,0,-0.1812,-0.1879,-0.1883,-0.1902,-0.195,-0.1969,-0.1996,-0.2026,-0.204,-0.2065,-0.2082,-0.2111,-0.2116,-0.2128,-0.2138,-0.2136,-0.2137,-0.2136,-0.2136,-0.2132,-0.2133,-0.2152,-0.2154,-0.213,-0.213,-0.213,-0.214,0,-0.1816,-0.1863,-0.1898,-0.193,-0.1951,-0.1984,-0.2008,-0.2034,-0.2058,-0.2082,-0.2093,-0.2116,-0.2118,-0.2128,-0.2125,-0.2143,-0.2136,-0.2135,-0.2135,-0.2135,-0.2143,-0.2154,-0.2146,-0.2156,-0.214,-0.214,-0.214,0,-0.1818,-0.1852,-0.1882,-0.1933,-0.1946,-0.1965,-0.2,-0.2027,-0.2064,-0.2082,-0.2097,-0.2115,-0.2128,-0.2123,-0.2133,-0.2131,-0.2129,-0.2133,-0.2133,-0.2151,-0.2154,-0.2147,-0.2157,-0.2157,-0.214,-0.214,-0.214,0,-0.1772,-0.1836,-0.1855,-0.1873,-0.1935,-0.1948,-0.1977,-0.2017,-0.2048,-0.2076,-0.2105,-0.2113,-0.2135,-0.2123,-0.2149,-0.2134,-0.2161,-0.214,-0.215,-0.2151,-0.2146,-0.2148,-0.2148,-0.2129,-0.2129,-0.2129,-0.2129,0,-0.1757,-0.1772,-0.1833,-0.1844,-0.1863,-0.1917,-0.1944,-0.1972,-0.2031,-0.2079,-0.2096,-0.2142,-0.2136,-0.2163,-0.2153,-0.2169,-0.2163,-0.2152,-0.2155,-0.2146,-0.2148,-0.2149,-0.2165,-0.2129,-0.2129,-0.2129,-0.2129,0,-0.1697,-0.1742,-0.1761,-0.1821,-0.1839,-0.1845,-0.1926,-0.1956,-0.2015,-0.208,-0.2094,-0.2164,-0.2204,-0.2207,-0.2211,-0.2192,-0.2176,-0.2193,-0.2193,-0.2194,-0.2185,-0.2202,-0.2158,-0.2104,-0.2187,-0.2188,-0.2188,0,-0.167,-0.1673,-0.1721,-0.1733,-0.1758,-0.1795,-0.1831,-0.1917,-0.1971,-0.2109,-0.2143,-0.2213,-0.2277,-0.2298,-0.2276,-0.2257,-0.2213,-0.2219,-0.2183,-0.219,-0.2209,-0.2157,-0.2109,-0.2175,-0.2175,-0.2176,-0.2176,0,-0.161,-0.162,-0.1639,-0.1663,-0.1694,-0.1747,-0.1816,-0.1869,-0.1998,-0.2079,-0.2214,-0.2283,-0.2341,-0.2353,-0.2329,-0.2294,-0.219,-0.2223,-0.2223,-0.2199,-0.2148,-0.2096,-0.2172,-0.2178,-0.2178,-0.2177,-0.2177,-0.2177,-0.1549,-0.1544,-0.157,-0.1587,-0.1631,-0.1701,-0.1711,-0.1845,-0.195,-0.209,-0.2221,-0.2348,-0.2405,-0.2387,-0.2346,-0.2282,-0.2224,-0.2214,-0.2233,-0.2178,-0.2124,-0.2215,-0.2229,-0.2229,-0.2229,-0.223,-0.223,0,-0.1473,-0.1488,-0.1502,-0.153,-0.1549,-0.1603,-0.1696,-0.1717,-0.1827,-0.2046,-0.2174,-0.2416,-0.2427,-0.2442,-0.2417,-0.2327,-0.2205,-0.2249,-0.2172,-0.2119,-0.2202,-0.2201,-0.2219,-0.2219,-0.2219,-0.2219,-0.2219,-0.2219,-0.1435,-0.1421,-0.1435,-0.1439,-0.1461,-0.1462,-0.1489,-0.1564,-0.1688,-0.1934,-0.2163,-0.2364,-0.2488,-0.2628,-0.2527,-0.24,-0.2273,-0.2211,-0.216,-0.2251,-0.2249,-0.2246,-0.2247,-0.2274,-0.2274,-0.2007,-0.2005,-0.2004]},{"header":{"parameterUnit":"m.s-1","parameterCategory":2,"la1":30.2991,"la2":30.254,"lo1":-89.0895,"lo2":-89.0444,"dy":0.0017,"dx":0.0017,"nx":28,"ny":28,"refTime":"2025-03-01T03:00:00:Z","depth":"0","parameterNumber":3,"parameterNumberName":"V-component_of_CURRENTS"},"data":[0,0,0,0,0,0,0,0,0,0,0,0,0,0,0,0,0,0,0,0,0,0,0,0,0,0,0,0,0,0,0,0,0,0,0,0,0,0,0,0,0,0,0,0,0,0,0,0,0,0,0,0,0,0,0,0,0,0,-0.0378,-0.0377,0,-0.0327,-0.0326,-0.0325,-0.03,-0.03,-0.03,-0.03,-0.0225,-0.0223,-0.0221,0,0,0,0,0,0,0,0,0,0,0,0,0,-0.0369,-0.037,-0.0378,-0.0377,-0.0377,-0.0327,-0.0326,-0.0325,-0.03,-0.03,-0.03,-0.03,-0.0225,-0.0223,-0.022,0,0,0,0,0,0,0,0,0,0,0,0,0,-0.035,-0.037,-0.0378,-0.0359,-0.0357,-0.0327,-0.0326,-0.0325,-0.03,-0.03,-0.03,-0.03,-0.0226,-0.0223,-0.022,-0.0197,0,0,-0.021,-0.0209,0,0,0,0,0,0,0,0,-0.0351,-0.035,-0.0362,-0.036,-0.0358,-0.0321,-0.0295,-0.0281,-0.03,-0.032,-0.03,-0.0301,-0.0255,-0.025,-0.0238,-0.0193,-0.019,-0.021,-0.0208,-0.0207,-0.0206,0,0,0,0,0,0,0,-0.0353,-0.0352,-0.0356,-0.0362,-0.0359,-0.0325,-0.0323,-0.0292,-0.0286,-0.0318,-0.0317,-0.0313,-0.0254,-0.0241,-0.0236,-0.0189,-0.021,-0.0207,-0.0205,-0.0204,-0.0124,-0.0124,0,0,0,0,0,0,-0.0366,-0.0354,-0.0358,-0.0355,-0.0357,-0.0325,-0.0323,-0.0332,-0.0287,-0.0281,-0.0313,-0.0312,-0.0247,-0.024,-0.0233,-0.0209,-0.0207,-0.0204,-0.0202,-0.0124,-0.0124,-0.0124,0,0,0,0,0,0,-0.0366,-0.0368,-0.036,-0.0353,-0.035,-0.0326,-0.0335,-0.0331,-0.0322,-0.0283,-0.0276,-0.031,-0.0247,-0.0238,-0.0206,-0.0206,-0.0202,-0.0199,-0.0124,-0.0124,-0.0124,-0.0156,0,0,0,0,0,0,-0.0367,-0.0368,-0.0377,-0.0355,-0.0351,-0.0346,-0.0335,-0.0329,-0.032,-0.0318,-0.0278,-0.0271,-0.0246,-0.0211,-0.0203,-0.0201,-0.0197,-0.0125,-0.0124,-0.0124,-0.0156,-0.0157,-0.0159,0,0,0,0,0,-0.0367,-0.0378,-0.0378,-0.0378,-0.0365,-0.0346,-0.0341,-0.0322,-0.032,-0.0316,-0.0287,-0.0273,-0.0203,-0.0208,-0.0198,-0.0196,-0.0125,-0.0124,-0.0124,-0.0155,-0.0157,-0.0159,0,0,0,0,0,0,-0.0377,-0.0376,-0.0376,-0.0387,-0.0371,-0.0343,-0.0337,-0.0326,-0.0301,-0.0298,-0.0265,-0.0256,-0.0228,-0.0206,-0.0213,-0.0172,-0.0163,-0.0161,-0.019,-0.0191,-0.0193,-0.02,-0.0194,0,0,0,0,0,-0.0386,-0.0395,-0.0383,-0.039,-0.0386,-0.0363,-0.0353,-0.0341,-0.0316,-0.0306,-0.0277,-0.0246,-0.0217,-0.0201,-0.0171,-0.0146,-0.0128,-0.014,-0.0141,-0.0143,-0.0141,-0.0124,-0.0125,-0.0122,-0.0122,-0.0122,0,0,-0.0391,-0.0391,-0.0397,-0.0393,-0.0379,-0.037,-0.0357,-0.0345,-0.0334,-0.03,-0.0275,-0.0248,-0.0212,-0.0184,-0.017,-0.0167,-0.0132,-0.0142,-0.0144,-0.0141,-0.0124,-0.0124,-0.0125,-0.0122,-0.0122,-0.0122,0,0,-0.04,-0.0409,-0.0416,-0.0406,-0.0391,-0.0376,-0.0377,-0.0351,-0.0338,-0.0311,-0.0286,-0.0261,-0.0214,-0.019,-0.0172,-0.0163,-0.0141,-0.0155,-0.0167,-0.0151,-0.0151,-0.0151,-0.0124,-0.0121,-0.0157,-0.0157,-0.0157,0,-0.0407,-0.0418,-0.0412,-0.041,-0.0405,-0.0383,-0.0382,-0.0362,-0.0327,-0.0315,-0.0308,-0.0244,-0.0217,-0.0185,-0.0183,-0.0167,-0.0151,-0.0165,-0.0154,-0.0154,-0.0153,-0.0125,-0.0122,-0.0158,-0.0158,-0.0158,-0.0158,0,-0.0417,-0.0423,-0.0424,-0.0421,-0.0412,-0.0406,-0.0384,-0.0371,-0.0354,-0.0331,-0.0298,-0.0259,-0.0224,-0.0213,-0.0193,-0.0175,-0.0162,-0.0159,-0.0153,-0.0156,-0.0126,-0.0122,-0.016,-0.016,-0.0159,-0.0159,0,0,-0.0443,-0.0435,-0.0436,-0.0439,-0.042,-0.0416,-0.0399,-0.0379,-0.0373,-0.0333,-0.0317,-0.0269,-0.025,-0.0228,-0.0203,-0.0188,-0.017,-0.0175,-0.0173,-0.0154,-0.0126,-0.0079,-0.0069,-0.0169,-0.0169,-0.0169,-0.0104,0,-0.0453,-0.0459,-0.045,-0.0453,-0.0455,-0.0435,-0.0426,-0.0403,-0.0377,-0.0353,-0.0309,-0.0282,-0.0255,-0.0244,-0.0221,-0.0183,-0.0162,-0.0187,-0.012,-0.0118,-0.0081,-0.0064,-0.0052,0.001,-0.01,-0.0099,-0.0099,0,-0.0466,-0.0471,-0.0477,-0.048,-0.0481,-0.0477,-0.0468,-0.0455,-0.0412,-0.0394,-0.0352,-0.0314,-0.0269,-0.0258,-0.0186,-0.0204,-0.0166,-0.0137,-0.0134,-0.0076,-0.0063,-0.0005,0.0022,0.0143,-0.0093,-0.0093,-0.0094,0,-0.049,-0.0492,-0.0502,-0.05,-0.0495,-0.0497,-0.0494,-0.0465,-0.0466,-0.0414,-0.0409,-0.034,-0.0314,-0.0256,-0.0177,-0.0187,-0.0101,-0.0108,-0.0026,-0.0022,0.0011,0.0017,0.0158,-0.0063,-0.0063,-0.0063,-0.0064,0,-0.0507,-0.0515,-0.0515,-0.052,-0.0542,-0.0526,-0.0541,-0.0524,-0.0506,-0.0515,-0.0433,-0.0419,-0.0316,-0.0248,-0.0181,-0.0077,-0.0098,-0.0018,-0.0,0.0002,0.0006,0.0131,0.019,-0.0061,-0.0061,-0.0062,-0.0062,0,-0.0525,-0.0523,-0.0539,-0.0546,-0.0552,-0.0567,-0.0587,-0.0606,-0.0573,-0.058,-0.0569,-0.0478,-0.0382,-0.0267,-0.0161,-0.0083,0.0081,0.0047,0.0055,0.0072,0.0259,0.0315,0.0487,0.0503,0.0146,0.0148,0.0149,0,-0.053,-0.0538,-0.0564,-0.0591,-0.0595,-0.0618,-0.065,-0.064,-0.0663,-0.0622,-0.0635,-0.0527,-0.0459,-0.025,-0.0084,0.0072,0.0144,0.0177,0.0162,0.0289,0.0363,0.0406,0.0408,0.0193,0.0195,0.0196,0.0197,0,-0.0542,-0.0552,-0.0572,-0.0632,-0.0672,-0.0724,-0.076,-0.079,-0.0785,-0.0789,-0.0762,-0.0694,-0.0449,-0.0238,0.0008,0.0097,0.0271,0.0209,0.0332,0.0416,0.048,0.0495,0.0141,0.0209,0.0208,0.0207,0.0206,0.0206,-0.0553,-0.0578,-0.0619,-0.0674,-0.0738,-0.0826,-0.0878,-0.0927,-0.0976,-0.0993,-0.0879,-0.0787,-0.0384,-0.0027,0.0098,0.0406,0.0371,0.0479,0.0537,0.057,0.0592,0.0277,0.0369,0.0369,0.0369,0.0368,0.0368,0,-0.0571,-0.0607,-0.0663,-0.0751,-0.0846,-0.0863,-0.0956,-0.1019,-0.1099,-0.1089,-0.1048,-0.0673,-0.0284,0.0083,0.0577,0.0739,0.0725,0.0808,0.0865,0.0844,0.0563,0.0572,0.0721,0.072,0.072,0.072,0.072,0.072,-0.0582,-0.0639,-0.0672,-0.0823,-0.0897,-0.1029,-0.1086,-0.1179,-0.1199,-0.117,-0.1023,-0.0889,-0.0258,0.0668,0.111,0.1112,0.1187,0.1198,0.1227,0.1045,0.1018,0.0992,0.1015,0.1255,0.1255,0.1459,0.1462,0.1464]}],[{"header":{"parameterUnit":"m.s-1","parameterCategory":2,"la1":30.2991,"la2":30.254,"lo1":-89.0895,"lo2":-89.0444,"dy":0.0017,"dx":0.0017,"nx":28,"ny":28,"refTime":"2025-03-01T03:00:00:Z","depth":"2","parameterNumber":2,"parameterNumberName":"U-component_of_CURRENTS"},"data":[0,0,0,0,0,0,0,0,0,0,0,0,0,0,0,0,0,0,0,0,0,0,0,0,0,0,0,0,0,0,0,0,0,0,0,0,0,0,0,0,0,0,0,0,0,0,0,0,0,0,0,0,0,0,0,0,0,0,-0.1825,-0.1825,0,-0.1883,-0.1884,-0.1885,-0.1889,-0.1888,-0.1887,-0.1887,-0.1926,-0.1927,-0.1929,0,0,0,0,0,0,0,0,0,0,0,0,0,-0.1698,-0.17,-0.1825,-0.1825,-0.1826,-0.1883,-0.1884,-0.1885,-0.1889,-0.1888,-0.1887,-0.1886,-0.1925,-0.1927,-0.1929,0,0,0,0,0,0,0,0,0,0,0,0,0,-0.1755,-0.1701,-0.1825,-0.1834,-0.1835,-0.1883,-0.1884,-0.1885,-0.1889,-0.1888,-0.1887,-0.1886,-0.1925,-0.1927,-0.193,-0.1968,0,0,-0.1938,-0.1939,0,0,0,0,0,0,0,0,-0.1752,-0.176,-0.1832,-0.1833,-0.1835,-0.1877,-0.1854,-0.1912,-0.1889,-0.187,-0.1886,-0.1885,-0.1908,-0.1912,-0.1927,-0.197,-0.1972,-0.1938,-0.194,-0.1941,-0.1941,0,0,0,0,0,0,0,-0.1748,-0.1757,-0.1849,-0.1833,-0.1835,-0.1829,-0.1836,-0.1865,-0.1895,-0.1871,-0.1872,-0.1877,-0.1908,-0.1924,-0.1928,-0.1973,-0.1938,-0.194,-0.1942,-0.1943,-0.2028,-0.2028,0,0,0,0,0,0,-0.1742,-0.1754,-0.1847,-0.1851,-0.1789,-0.1832,-0.184,-0.1865,-0.1895,-0.1898,-0.1878,-0.1877,-0.1921,-0.1925,-0.1929,-0.1956,-0.1941,-0.1943,-0.1945,-0.2027,-0.2028,-0.2029,0,0,0,0,0,0,-0.1739,-0.175,-0.1845,-0.1801,-0.1813,-0.1835,-0.1864,-0.1867,-0.1881,-0.19,-0.1903,-0.1887,-0.192,-0.1925,-0.1958,-0.1958,-0.1944,-0.1947,-0.2026,-0.2027,-0.2028,-0.2024,0,0,0,0,0,0,-0.1735,-0.1749,-0.1767,-0.1802,-0.1815,-0.1869,-0.1865,-0.1869,-0.1885,-0.1885,-0.1909,-0.1912,-0.1919,-0.1954,-0.196,-0.1962,-0.1949,-0.2025,-0.2027,-0.2028,-0.2023,-0.2024,-0.2026,0,0,0,0,0,-0.1731,-0.1758,-0.1768,-0.1779,-0.1839,-0.187,-0.1876,-0.1888,-0.1887,-0.1896,-0.1916,-0.1911,-0.1966,-0.1957,-0.1965,-0.1966,-0.2025,-0.2026,-0.2028,-0.2022,-0.2024,-0.2026,0,0,0,0,0,0,-0.1715,-0.1762,-0.1774,-0.1815,-0.1838,-0.187,-0.1883,-0.1892,-0.1917,-0.1916,-0.193,-0.1935,-0.1962,-0.1971,-0.1961,-0.1995,-0.1991,-0.1994,-0.1984,-0.1986,-0.1987,-0.1978,-0.1951,0,0,0,0,0,-0.1721,-0.175,-0.1789,-0.1819,-0.1834,-0.186,-0.1874,-0.1883,-0.1908,-0.1918,-0.1936,-0.1955,-0.1977,-0.1986,-0.2009,-0.2035,-0.2034,-0.2038,-0.204,-0.2041,-0.2039,-0.2036,-0.2036,-0.2034,-0.2034,-0.2034,0,0,-0.1718,-0.1751,-0.1765,-0.1817,-0.1837,-0.1861,-0.1866,-0.1889,-0.1903,-0.1919,-0.1947,-0.1966,-0.1987,-0.2012,-0.2023,-0.2017,-0.2043,-0.2043,-0.2043,-0.2041,-0.2037,-0.2037,-0.2037,-0.2035,-0.2035,-0.2034,0,0,-0.1725,-0.1763,-0.1786,-0.181,-0.1844,-0.1862,-0.1868,-0.1904,-0.1913,-0.1947,-0.1957,-0.1977,-0.2017,-0.2026,-0.2036,-0.2062,-0.2054,-0.2066,-0.2062,-0.2059,-0.2058,-0.2058,-0.2063,-0.2064,-0.2062,-0.2062,-0.2062,0,-0.172,-0.1762,-0.1794,-0.1823,-0.184,-0.1862,-0.1882,-0.1902,-0.194,-0.195,-0.1953,-0.2003,-0.2021,-0.2041,-0.2049,-0.2063,-0.2062,-0.2052,-0.2058,-0.2058,-0.2058,-0.2063,-0.2064,-0.2062,-0.2062,-0.2062,-0.2062,0,-0.1742,-0.1775,-0.1791,-0.1835,-0.1857,-0.1878,-0.1907,-0.1927,-0.1941,-0.1958,-0.1985,-0.2011,-0.2035,-0.2043,-0.2057,-0.2064,-0.2066,-0.2062,-0.2049,-0.2057,-0.2064,-0.2064,-0.2062,-0.2062,-0.2062,-0.2062,0,0,-0.1729,-0.1794,-0.1797,-0.1815,-0.1864,-0.1881,-0.1909,-0.1938,-0.1952,-0.1977,-0.1995,-0.2027,-0.2033,-0.2046,-0.2057,-0.2056,-0.206,-0.2058,-0.2057,-0.2055,-0.2058,-0.2065,-0.2065,-0.2053,-0.2053,-0.2053,-0.2065,0,-0.1732,-0.1776,-0.1812,-0.1842,-0.1863,-0.1896,-0.1922,-0.1948,-0.1971,-0.1995,-0.2007,-0.2032,-0.2035,-0.2047,-0.2045,-0.2065,-0.206,-0.2058,-0.2058,-0.2058,-0.2056,-0.2065,-0.1923,-0.1922,-0.2065,-0.2065,-0.2065,0,-0.1734,-0.1765,-0.1795,-0.1844,-0.1857,-0.1877,-0.1913,-0.194,-0.1978,-0.1997,-0.2013,-0.2031,-0.2047,-0.2042,-0.2055,-0.2053,-0.2053,-0.2058,-0.2058,-0.2064,-0.2065,-0.1937,-0.1917,-0.2065,-0.2065,-0.2065,-0.2065,0,-0.1688,-0.1748,-0.1766,-0.1784,-0.1846,-0.186,-0.1889,-0.1932,-0.1964,-0.1992,-0.2023,-0.2031,-0.2055,-0.2044,-0.2073,-0.2058,-0.2087,-0.2066,-0.2067,-0.2068,-0.1947,-0.1938,-0.2057,-0.2057,-0.2057,-0.2057,-0.2057,0,-0.1673,-0.1687,-0.1744,-0.1754,-0.1773,-0.1828,-0.1857,-0.1885,-0.1948,-0.1998,-0.2015,-0.2061,-0.2057,-0.2085,-0.2077,-0.2088,-0.2089,-0.2069,-0.207,-0.1944,-0.1935,-0.2059,-0.2059,-0.2058,-0.2058,-0.2058,-0.2058,0,-0.1615,-0.1658,-0.1676,-0.1734,-0.175,-0.1757,-0.1839,-0.187,-0.1932,-0.1999,-0.2014,-0.2086,-0.2124,-0.2127,-0.2134,-0.2111,-0.2108,-0.2108,-0.1973,-0.1958,-0.2083,-0.2083,-0.2089,-0.2089,-0.209,-0.209,-0.209,0,-0.1589,-0.1593,-0.1638,-0.165,-0.1673,-0.1709,-0.1745,-0.1832,-0.1888,-0.2028,-0.2064,-0.2133,-0.2179,-0.2195,-0.2159,-0.2131,-0.2145,-0.1978,-0.1921,-0.2086,-0.2086,-0.2085,-0.2085,-0.1756,-0.1754,-0.1752,-0.175,0,-0.1532,-0.1543,-0.1561,-0.1583,-0.1613,-0.1663,-0.1732,-0.1781,-0.1912,-0.1984,-0.2114,-0.2166,-0.2206,-0.2132,-0.2095,-0.2043,-0.1967,-0.1937,-0.2129,-0.1787,-0.1777,-0.1776,-0.1785,-0.1731,-0.1733,-0.1734,-0.1735,-0.1736,-0.1475,-0.147,-0.1495,-0.151,-0.1553,-0.1617,-0.1622,-0.1739,-0.1828,-0.1934,-0.2075,-0.2113,-0.2084,-0.1984,-0.1898,-0.1815,-0.1927,-0.1809,-0.1812,-0.1819,-0.1795,-0.1787,-0.1739,-0.1741,-0.1742,-0.1744,-0.1745,0,-0.1397,-0.1415,-0.1428,-0.1452,-0.1466,-0.1522,-0.1607,-0.1606,-0.1677,-0.1836,-0.1927,-0.1811,-0.1781,-0.1757,-0.1634,-0.1593,-0.1523,-0.1497,-0.141,-0.1432,-0.145,-0.1403,-0.1245,-0.1244,-0.1242,-0.124,0,0,-0.1359,-0.1343,-0.1354,-0.1351,-0.1373,-0.1366,-0.1386,-0.1415,-0.1489,-0.1545,-0.1604,-0.1758,-0.1783,-0.1548,-0.1456,-0.1355,-0.1371,-0.128,-0.1687,-0.1612,-0.1628,-0.1643,-0.1599,0,0,0,0,0]},{"header":{"parameterUnit":"m.s-1","parameterCategory":2,"la1":30.2991,"la2":30.254,"lo1":-89.0895,"lo2":-89.0444,"dy":0.0017,"dx":0.0017,"nx":28,"ny":28,"refTime":"2025-03-01T03:00:00:Z","depth":"2","parameterNumber":3,"parameterNumberName":"V-component_of_CURRENTS"},"data":[0,0,0,0,0,0,0,0,0,0,0,0,0,0,0,0,0,0,0,0,0,0,0,0,0,0,0,0,0,0,0,0,0,0,0,0,0,0,0,0,0,0,0,0,0,0,0,0,0,0,0,0,0,0,0,0,0,0,-0.0302,-0.0302,0,-0.0247,-0.0247,-0.0246,-0.0221,-0.0222,-0.0222,-0.0222,-0.0148,-0.0145,-0.0143,0,0,0,0,0,0,0,0,0,0,0,0,0,-0.0294,-0.0295,-0.0302,-0.0302,-0.0301,-0.0247,-0.0247,-0.0246,-0.0221,-0.0222,-0.0222,-0.0222,-0.0148,-0.0146,-0.0143,0,0,0,0,0,0,0,0,0,0,0,0,0,-0.0274,-0.0295,-0.0302,-0.0283,-0.0281,-0.0248,-0.0247,-0.0246,-0.0221,-0.0222,-0.0222,-0.0222,-0.0149,-0.0146,-0.0143,-0.0118,0,0,-0.0133,-0.0132,0,0,0,0,0,0,0,0,-0.0275,-0.0274,-0.0287,-0.0285,-0.0282,-0.0243,-0.0217,-0.0202,-0.0221,-0.0243,-0.0222,-0.0222,-0.0178,-0.0173,-0.016,-0.0114,-0.0111,-0.0133,-0.0131,-0.0129,-0.0128,0,0,0,0,0,0,0,-0.0276,-0.0275,-0.0279,-0.0286,-0.0283,-0.0246,-0.0244,-0.0213,-0.0208,-0.0241,-0.0239,-0.0235,-0.0177,-0.0163,-0.0158,-0.011,-0.0133,-0.013,-0.0128,-0.0127,-0.0048,-0.0048,0,0,0,0,0,0,-0.029,-0.0277,-0.0281,-0.0278,-0.028,-0.0247,-0.0244,-0.0254,-0.0209,-0.0203,-0.0235,-0.0234,-0.0169,-0.0162,-0.0156,-0.0134,-0.0129,-0.0126,-0.0125,-0.0048,-0.0048,-0.0048,0,0,0,0,0,0,-0.0291,-0.0292,-0.0283,-0.0276,-0.0273,-0.0247,-0.0258,-0.0253,-0.0245,-0.0205,-0.0198,-0.0233,-0.0169,-0.016,-0.0129,-0.013,-0.0125,-0.0122,-0.0048,-0.0048,-0.0048,-0.0083,0,0,0,0,0,0,-0.0291,-0.0293,-0.0303,-0.0278,-0.0274,-0.0269,-0.0257,-0.0252,-0.0242,-0.0241,-0.0201,-0.0194,-0.0168,-0.0134,-0.0126,-0.0126,-0.0119,-0.0048,-0.0048,-0.0048,-0.0082,-0.0084,-0.0086,0,0,0,0,0,-0.0291,-0.0304,-0.0304,-0.0304,-0.029,-0.0269,-0.0263,-0.0244,-0.0242,-0.0238,-0.021,-0.0196,-0.0126,-0.0131,-0.0121,-0.0121,-0.0049,-0.0048,-0.0048,-0.0081,-0.0084,-0.0086,0,0,0,0,0,0,-0.0304,-0.0302,-0.0302,-0.0314,-0.0296,-0.0266,-0.026,-0.0249,-0.0224,-0.0222,-0.0188,-0.0179,-0.0153,-0.0131,-0.0137,-0.0097,-0.0087,-0.0085,-0.0116,-0.0117,-0.0119,-0.0125,-0.0117,0,0,0,0,0,-0.0314,-0.0324,-0.031,-0.0318,-0.0313,-0.0289,-0.0278,-0.0266,-0.024,-0.023,-0.0201,-0.0171,-0.0142,-0.0126,-0.0096,-0.0072,-0.0053,-0.0066,-0.0068,-0.007,-0.0068,-0.0051,-0.0051,-0.0047,-0.0047,-0.0047,0,0,-0.0321,-0.032,-0.0326,-0.0321,-0.0307,-0.0297,-0.0283,-0.027,-0.0259,-0.0225,-0.0201,-0.0174,-0.0137,-0.011,-0.0097,-0.0093,-0.006,-0.0069,-0.0071,-0.0068,-0.0051,-0.0051,-0.0052,-0.0046,-0.0046,-0.0046,0,0,-0.0331,-0.0341,-0.0349,-0.0338,-0.0322,-0.0305,-0.0306,-0.0279,-0.0266,-0.0239,-0.0214,-0.019,-0.0143,-0.0118,-0.01,-0.0093,-0.007,-0.0086,-0.0099,-0.0082,-0.0083,-0.0083,-0.0056,-0.0053,-0.0087,-0.0087,-0.0087,0,-0.034,-0.0351,-0.0344,-0.0342,-0.0336,-0.0313,-0.0312,-0.0291,-0.0256,-0.0244,-0.0237,-0.0173,-0.0147,-0.0115,-0.0114,-0.0098,-0.0081,-0.0095,-0.0086,-0.0085,-0.0085,-0.0057,-0.0054,-0.0089,-0.0089,-0.0089,-0.0088,0,-0.0351,-0.0357,-0.0358,-0.0355,-0.0346,-0.034,-0.0316,-0.0303,-0.0287,-0.0262,-0.023,-0.0191,-0.0155,-0.0145,-0.0125,-0.0108,-0.0095,-0.0092,-0.0084,-0.0088,-0.0058,-0.0054,-0.0091,-0.0091,-0.009,-0.009,0,0,-0.038,-0.0371,-0.0372,-0.0374,-0.0354,-0.035,-0.0334,-0.0312,-0.0306,-0.0266,-0.025,-0.0203,-0.0184,-0.0162,-0.0136,-0.0121,-0.0105,-0.0108,-0.0107,-0.0088,-0.0061,-0.0016,-0.0007,-0.0104,-0.0104,-0.0103,-0.004,0,-0.0392,-0.0396,-0.0386,-0.0388,-0.039,-0.0369,-0.0361,-0.0338,-0.0311,-0.0287,-0.0243,-0.0215,-0.0189,-0.0178,-0.0156,-0.0117,-0.0097,-0.0122,-0.0054,-0.0051,-0.0017,-0.0002,-0.0022,0.0036,-0.0036,-0.0035,-0.0035,0,-0.0406,-0.0408,-0.0414,-0.0415,-0.0415,-0.0412,-0.0402,-0.0389,-0.0347,-0.0328,-0.0287,-0.0248,-0.0204,-0.0192,-0.0121,-0.0139,-0.0102,-0.0073,-0.007,-0.0013,0.0,0.0029,0.0046,-0.0028,-0.0028,-0.0029,-0.0029,0,-0.043,-0.043,-0.0438,-0.0436,-0.043,-0.0432,-0.0428,-0.04,-0.0401,-0.035,-0.0345,-0.0275,-0.025,-0.0191,-0.0114,-0.0123,-0.0037,-0.0043,0.0036,0.004,0.0046,0.005,0.0001,0.0001,0.0001,0.0001,0.0001,0,-0.0448,-0.0455,-0.0452,-0.0457,-0.0477,-0.046,-0.0475,-0.0459,-0.0443,-0.045,-0.0369,-0.0354,-0.0252,-0.0184,-0.0117,-0.0015,-0.0035,0.0043,0.0061,0.0035,0.0037,-0.0002,-0.0004,0.0003,0.0003,0.0002,0.0002,0,-0.0467,-0.0463,-0.0478,-0.0482,-0.0488,-0.0502,-0.0521,-0.054,-0.0509,-0.0516,-0.0505,-0.0414,-0.0319,-0.0204,-0.0099,-0.0021,0.007,0.0108,0.0083,0.0097,0.0135,0.0131,0.0199,0.0201,0.0203,0.0204,0.0206,0,-0.0473,-0.048,-0.0503,-0.0528,-0.0532,-0.0554,-0.0584,-0.0575,-0.0597,-0.0558,-0.057,-0.0464,-0.0394,-0.0187,-0.0028,0.0125,0.0111,0.02,0.0181,0.0146,0.0156,0.0149,0.0143,0.0174,0.0175,0.0176,0.0177,0,-0.0486,-0.0495,-0.0514,-0.057,-0.0608,-0.0657,-0.0691,-0.0719,-0.0716,-0.0716,-0.0689,-0.062,-0.0387,-0.0195,0.0044,0.0126,0.0179,0.0221,0.0189,0.0132,0.0129,0.0137,0.013,0.0183,0.0183,0.0182,0.0182,0.0181,-0.0497,-0.0522,-0.056,-0.0612,-0.0674,-0.0757,-0.0804,-0.0846,-0.0887,-0.0893,-0.0793,-0.069,-0.0436,-0.0119,0.008,0.0261,0.0239,0.0276,0.027,0.0265,0.0255,0.0256,0.0333,0.0333,0.0333,0.0333,0.0334,0,-0.0515,-0.0549,-0.0603,-0.0685,-0.0774,-0.0793,-0.088,-0.0928,-0.099,-0.0971,-0.0927,-0.0682,-0.0411,-0.0154,0.0145,0.0333,0.031,0.0359,0.0294,0.0287,0.0281,0.0269,0.0352,0.0353,0.0353,0.0354,0,0,-0.0525,-0.0577,-0.0607,-0.0748,-0.0821,-0.0942,-0.0995,-0.106,-0.1066,-0.1071,-0.0995,-0.082,-0.046,-0.0245,0.0019,0.0188,0.0175,0.0198,0.0162,0.0046,0.0037,0.0214,0.0187,0,0,0,0,0]}],[{"header":{"parameterUnit":"m.s-1","parameterCategory":2,"la1":30.2991,"la2":30.254,"lo1":-89.0895,"lo2":-89.0444,"dy":0.0017,"dx":0.0017,"nx":28,"ny":28,"refTime":"2025-03-01T03:00:00:Z","depth":"4","parameterNumber":2,"parameterNumberName":"U-component_of_CURRENTS"},"data":[0,0,0,0,0,0,0,0,0,0,0,0,0,0,0,0,0,0,0,0,0,0,0,0,0,0,0,0,0,0,0,0,0,0,0,0,0,0,0,0,0,0,0,0,0,0,0,0,0,0,0,0,0,0,0,0,0,0,-0.0594,-0.0593,0,-0.0548,-0.0548,-0.0548,-0.0537,-0.0538,-0.0538,-0.0538,-0.0564,-0.0564,-0.0565,0,0,0,0,0,0,0,0,0,0,0,0,0,-0.0665,-0.0664,-0.0594,-0.0593,-0.0592,-0.0548,-0.0548,-0.0547,-0.0537,-0.0538,-0.0538,-0.0538,-0.0564,-0.0564,-0.0565,0,0,0,0,0,0,0,0,0,0,0,0,0,-0.063,-0.0663,-0.0594,-0.0581,-0.0579,-0.0548,-0.0548,-0.0547,-0.0537,-0.0538,-0.0538,-0.0538,-0.0563,-0.0564,-0.0565,-0.0565,0,0,-0.0567,-0.0568,0,0,0,0,0,0,0,0,-0.0632,-0.0627,-0.0584,-0.0582,-0.058,-0.0547,-0.0582,-0.0556,-0.0537,-0.0555,-0.0538,-0.0538,-0.0564,-0.0564,-0.0557,-0.0566,-0.0567,-0.0568,-0.0568,-0.0568,-0.0569,0,0,0,0,0,0,0,-0.0634,-0.0629,-0.0578,-0.0583,-0.058,-0.0574,-0.057,-0.0577,-0.0561,-0.0554,-0.0552,-0.0544,-0.0563,-0.0556,-0.0557,-0.0568,-0.0568,-0.0568,-0.0569,-0.0569,-0.0625,-0.0626,0,0,0,0,0,0,-0.0636,-0.0631,-0.0579,-0.0576,-0.0605,-0.0573,-0.0568,-0.0559,-0.0559,-0.0559,-0.0544,-0.0544,-0.0554,-0.0557,-0.0558,-0.0587,-0.0568,-0.0569,-0.057,-0.0624,-0.0625,-0.0626,0,0,0,0,0,0,-0.0638,-0.0632,-0.0581,-0.0602,-0.0594,-0.0571,-0.0561,-0.0558,-0.0574,-0.0551,-0.0552,-0.0566,-0.0555,-0.0557,-0.0577,-0.0587,-0.0569,-0.057,-0.0623,-0.0624,-0.0625,-0.0626,0,0,0,0,0,0,-0.064,-0.0633,-0.0637,-0.0602,-0.0593,-0.0572,-0.0561,-0.0557,-0.0566,-0.0567,-0.057,-0.0571,-0.0555,-0.0576,-0.0578,-0.0588,-0.0571,-0.0621,-0.0623,-0.0625,-0.0624,-0.0627,-0.0629,0,0,0,0,0,-0.0643,-0.0629,-0.0637,-0.0632,-0.0596,-0.0572,-0.0568,-0.0554,-0.0568,-0.0572,-0.0577,-0.0572,-0.059,-0.0577,-0.058,-0.0589,-0.062,-0.0623,-0.0625,-0.0623,-0.0627,-0.0629,0,0,0,0,0,0,-0.0632,-0.0626,-0.0634,-0.0613,-0.0605,-0.057,-0.0572,-0.0573,-0.058,-0.0598,-0.0582,-0.0583,-0.0601,-0.0605,-0.0592,-0.0614,-0.0606,-0.0609,-0.0604,-0.0607,-0.061,-0.0614,-0.0572,0,0,0,0,0,-0.064,-0.0654,-0.0631,-0.0621,-0.0622,-0.0611,-0.0606,-0.0606,-0.06,-0.0605,-0.0597,-0.0605,-0.0608,-0.0617,-0.0616,-0.0633,-0.0658,-0.0644,-0.0647,-0.0649,-0.0655,-0.0684,-0.069,-0.0633,-0.0633,-0.0633,0,0,-0.0644,-0.0634,-0.0647,-0.0626,-0.0624,-0.0615,-0.061,-0.0616,-0.0616,-0.0609,-0.0612,-0.0614,-0.0615,-0.0621,-0.0632,-0.0629,-0.0685,-0.0652,-0.0653,-0.0659,-0.0687,-0.0692,-0.0697,-0.0635,-0.0635,-0.0634,0,0,-0.0634,-0.0644,-0.0651,-0.0648,-0.0649,-0.064,-0.0652,-0.0637,-0.0643,-0.0646,-0.0643,-0.0657,-0.065,-0.0651,-0.0652,-0.0678,-0.0694,-0.0681,-0.0697,-0.0724,-0.0729,-0.0733,-0.0801,-0.0811,-0.0684,-0.0684,-0.0684,0,-0.0643,-0.0632,-0.0647,-0.0637,-0.0642,-0.0656,-0.0658,-0.0656,-0.0649,-0.0664,-0.0651,-0.0659,-0.0662,-0.0678,-0.0679,-0.0682,-0.0712,-0.068,-0.0726,-0.0731,-0.0735,-0.0803,-0.0814,-0.0685,-0.0685,-0.0685,-0.0685,0,-0.0628,-0.0629,-0.0629,-0.0636,-0.0642,-0.0651,-0.0653,-0.0666,-0.0678,-0.0676,-0.0697,-0.0689,-0.0696,-0.0698,-0.0691,-0.0726,-0.0745,-0.0721,-0.0715,-0.0741,-0.0812,-0.0823,-0.0685,-0.0685,-0.0685,-0.0685,0,0,-0.0629,-0.0628,-0.0634,-0.0642,-0.0654,-0.0656,-0.0671,-0.0687,-0.0712,-0.0702,-0.0725,-0.072,-0.0728,-0.0732,-0.0731,-0.0753,-0.0815,-0.075,-0.0752,-0.0812,-0.091,-0.0853,-0.086,-0.0792,-0.0793,-0.0794,-0.0957,0,-0.0622,-0.0619,-0.0621,-0.0631,-0.0633,-0.0661,-0.067,-0.0698,-0.0715,-0.0736,-0.075,-0.0763,-0.0737,-0.0749,-0.0764,-0.08,-0.0841,-0.0776,-0.0881,-0.0886,-0.0825,-0.0869,-0.0799,-0.0966,-0.0969,-0.0971,-0.0972,0,-0.0601,-0.0607,-0.0618,-0.0643,-0.0651,-0.065,-0.0704,-0.0715,-0.0755,-0.0776,-0.0793,-0.0805,-0.0842,-0.0808,-0.0884,-0.0842,-0.0883,-0.0907,-0.0913,-0.0864,-0.0848,-0.0929,-0.0993,-0.0992,-0.099,-0.0989,-0.0987,0,-0.0595,-0.0604,-0.0623,-0.0629,-0.0652,-0.0664,-0.0679,-0.0722,-0.0762,-0.0798,-0.0847,-0.0865,-0.0906,-0.0927,-0.0966,-0.0937,-0.1055,-0.1025,-0.1023,-0.1022,-0.1023,-0.1017,-0.1091,-0.1091,-0.1091,-0.109,-0.109,0,-0.0566,-0.0585,-0.0615,-0.0618,-0.0651,-0.0663,-0.0702,-0.0725,-0.0781,-0.0816,-0.0862,-0.0888,-0.0936,-0.0998,-0.1007,-0.1053,-0.1094,-0.1044,-0.1053,-0.1025,-0.1017,-0.1034,-0.1025,-0.1096,-0.1095,-0.1094,-0.1093,0,-0.0536,-0.0561,-0.0585,-0.0622,-0.0636,-0.0655,-0.0712,-0.0747,-0.0802,-0.0851,-0.0871,-0.0956,-0.101,-0.1074,-0.1138,-0.1128,-0.1158,-0.1168,-0.1178,-0.1182,-0.111,-0.1099,-0.1199,-0.1198,-0.1198,-0.1197,-0.1197,0,-0.0509,-0.0518,-0.0591,-0.0619,-0.0627,-0.066,-0.0693,-0.0743,-0.0756,-0.0852,-0.0859,-0.0974,-0.1006,-0.1108,-0.1131,-0.1199,-0.1177,-0.1231,-0.1126,-0.1119,-0.1118,-0.1109,-0.11,-0.1196,-0.1195,-0.1195,-0.1195,0,-0.0461,-0.0508,-0.0545,-0.0597,-0.063,-0.0659,-0.0669,-0.0701,-0.0736,-0.0825,-0.086,-0.0925,-0.1012,-0.106,-0.115,-0.1162,-0.1204,-0.1223,-0.1224,-0.1126,-0.1116,-0.1114,-0.1105,-0.1193,-0.1193,-0.1193,-0.1193,0,-0.0449,-0.0471,-0.0522,-0.0594,-0.0622,-0.0611,-0.0637,-0.0648,-0.0685,-0.0779,-0.0769,-0.0885,-0.0963,-0.104,-0.1075,-0.1131,-0.1116,-0.1108,-0.1114,-0.1118,-0.1009,-0.0978,-0.1037,0,0,0,0,0,-0.0444,-0.0486,-0.0513,-0.0574,-0.0602,-0.0609,-0.0604,-0.0622,-0.0672,-0.0694,-0.0732,-0.0787,-0.0891,-0.0944,-0.0988,-0.1027,-0.1108,-0.1075,-0.1097,-0.1179,-0.1182,-0.1057,0,0,0,0,0,0,-0.0428,-0.0466,-0.0502,-0.0536,-0.0588,-0.0573,-0.0572,-0.0602,-0.059,-0.0668,-0.0725,-0.0801,-0.0901,-0.0897,-0.1005,-0.1022,-0.1033,-0.1147,-0.1147,-0.1178,-0.118,-0.1183,-0.1055,0,0,0,0,0]},{"header":{"parameterUnit":"m.s-1","parameterCategory":2,"la1":30.2991,"la2":30.254,"lo1":-89.0895,"lo2":-89.0444,"dy":0.0017,"dx":0.0017,"nx":28,"ny":28,"refTime":"2025-03-01T03:00:00:Z","depth":"4","parameterNumber":3,"parameterNumberName":"V-component_of_CURRENTS"},"data":[0,0,0,0,0,0,0,0,0,0,0,0,0,0,0,0,0,0,0,0,0,0,0,0,0,0,0,0,0,0,0,0,0,0,0,0,0,0,0,0,0,0,0,0,0,0,0,0,0,0,0,0,0,0,0,0,0,0,0.011,0.011,0,0.016,0.0161,0.0162,0.0213,0.0213,0.0214,0.0215,0.0323,0.0326,0.0328,0,0,0,0,0,0,0,0,0,0,0,0,0,0.0055,0.0056,0.011,0.011,0.0111,0.016,0.0161,0.0162,0.0213,0.0213,0.0214,0.0215,0.0322,0.0325,0.0328,0,0,0,0,0,0,0,0,0,0,0,0,0,0.0091,0.0056,0.011,0.0141,0.0144,0.016,0.0161,0.0162,0.0213,0.0214,0.0214,0.0215,0.0321,0.0325,0.0328,0.0333,0,0,0.0339,0.0341,0,0,0,0,0,0,0,0,0.0089,0.0093,0.0136,0.0139,0.0143,0.018,0.0182,0.0222,0.0212,0.0188,0.0215,0.0216,0.0279,0.0286,0.0295,0.0339,0.0343,0.034,0.0342,0.0343,0.0344,0,0,0,0,0,0,0,0.0086,0.0091,0.0131,0.0137,0.0141,0.0152,0.0158,0.0189,0.0231,0.019,0.0194,0.0197,0.0282,0.0291,0.0298,0.0345,0.034,0.0343,0.0345,0.0346,0.0402,0.0401,0,0,0,0,0,0,0.0077,0.0089,0.013,0.0133,0.0116,0.0152,0.0159,0.0168,0.0229,0.0238,0.0196,0.0199,0.0285,0.0294,0.0302,0.0313,0.0343,0.0347,0.0349,0.0402,0.0402,0.0401,0,0,0,0,0,0,0.0075,0.008,0.0128,0.011,0.0117,0.0152,0.0162,0.0169,0.0176,0.0232,0.0243,0.0196,0.0286,0.0297,0.0332,0.0318,0.0348,0.0351,0.0403,0.0402,0.0401,0.0334,0,0,0,0,0,0,0.0074,0.0079,0.008,0.011,0.0118,0.0126,0.0161,0.0169,0.0177,0.0181,0.0236,0.0247,0.0287,0.0326,0.0335,0.0323,0.0354,0.0404,0.0403,0.0402,0.0338,0.0331,0.0326,0,0,0,0,0,0.0072,0.0059,0.008,0.0085,0.0119,0.0125,0.0129,0.0158,0.0175,0.017,0.0217,0.0246,0.0325,0.0329,0.034,0.0328,0.0405,0.0403,0.0402,0.034,0.0333,0.0326,0,0,0,0,0,0,0.0034,0.0064,0.0088,0.0086,0.0103,0.0133,0.0128,0.0149,0.0179,0.0185,0.0244,0.0258,0.028,0.0312,0.0315,0.0339,0.0366,0.0367,0.0316,0.0309,0.0303,0.0313,0.0357,0,0,0,0,0,0.0027,0.0027,0.006,0.0057,0.0064,0.0096,0.0102,0.0118,0.0149,0.0162,0.0209,0.0252,0.0281,0.0302,0.0334,0.0351,0.0393,0.0348,0.0342,0.0337,0.0351,0.0407,0.0408,0.0396,0.0396,0.0396,0,0,0.001,0.0027,0.0028,0.0049,0.0066,0.0063,0.0101,0.0099,0.0101,0.017,0.0193,0.0233,0.028,0.03,0.0312,0.0327,0.0356,0.0335,0.0331,0.0348,0.0405,0.0407,0.0408,0.0395,0.0395,0.0395,0,0,-0.0032,-0.0006,-0.002,-0.0012,0.0004,0.0026,0.0022,0.0055,0.0075,0.01,0.0145,0.0184,0.0233,0.0269,0.029,0.0272,0.0321,0.027,0.0255,0.0307,0.0309,0.0311,0.0338,0.0343,0.027,0.027,0.027,0,-0.005,-0.0056,-0.0027,-0.0041,-0.0035,0.0006,-0.0008,0.001,0.0052,0.0072,0.0098,0.0182,0.022,0.025,0.0248,0.026,0.0293,0.0275,0.0301,0.0304,0.0308,0.0335,0.0342,0.0267,0.0267,0.0267,0.0268,0,-0.0103,-0.0105,-0.0117,-0.011,-0.0104,-0.0113,-0.008,-0.0062,-0.0024,0.0005,0.0051,0.0118,0.0178,0.018,0.0215,0.0248,0.0261,0.0284,0.0319,0.0305,0.0334,0.0342,0.0262,0.0263,0.0264,0.0265,0,0,-0.0145,-0.015,-0.0155,-0.0152,-0.0138,-0.0136,-0.0131,-0.0106,-0.0091,-0.0039,-0.0004,0.0053,0.0108,0.0138,0.0184,0.023,0.0273,0.0268,0.0273,0.0296,0.0375,0.028,0.0281,0.0303,0.0305,0.0306,0.0375,0,-0.0187,-0.0225,-0.0215,-0.0236,-0.024,-0.0201,-0.0195,-0.017,-0.0125,-0.008,-0.0012,0.0042,0.0083,0.0128,0.0176,0.0258,0.0297,0.0252,0.0386,0.0389,0.0309,0.0288,0.0312,0.0381,0.0383,0.0385,0.0386,0,-0.0236,-0.0249,-0.0282,-0.0272,-0.0271,-0.0271,-0.0232,-0.022,-0.0162,-0.0124,-0.0058,0.0004,0.0087,0.0129,0.026,0.0231,0.0302,0.0357,0.0362,0.031,0.0311,0.0407,0.0402,0.04,0.0399,0.0398,0.0397,0,-0.0266,-0.0289,-0.031,-0.0312,-0.0302,-0.0291,-0.0269,-0.0226,-0.0208,-0.0128,-0.0101,-0.0003,0.0068,0.0171,0.0269,0.0287,0.0394,0.0436,0.041,0.0404,0.0502,0.05,0.0528,0.0528,0.0528,0.0528,0.0528,0,-0.0297,-0.0318,-0.032,-0.0331,-0.0333,-0.031,-0.0294,-0.0259,-0.0213,-0.021,-0.0108,-0.0087,0.0089,0.0158,0.0257,0.0332,0.0387,0.0406,0.0418,0.0466,0.0459,0.0506,0.0503,0.053,0.053,0.0529,0.0529,0,-0.0315,-0.0331,-0.0352,-0.035,-0.0345,-0.0335,-0.0307,-0.0304,-0.0249,-0.0234,-0.0205,-0.012,-0.0038,0.0085,0.0243,0.0305,0.0395,0.0405,0.0412,0.0424,0.0383,0.0375,0.0421,0.0419,0.0416,0.0414,0.0413,0,-0.0323,-0.0338,-0.036,-0.0371,-0.0364,-0.0348,-0.035,-0.0312,-0.0314,-0.0283,-0.029,-0.0207,-0.0152,-0.0012,0.0122,0.0281,0.0302,0.0367,0.0417,0.0366,0.0374,0.0369,0.0365,0.0409,0.0408,0.0408,0.0407,0,-0.0322,-0.0339,-0.0356,-0.0371,-0.0381,-0.0397,-0.0392,-0.04,-0.0381,-0.0358,-0.0355,-0.0275,-0.0207,-0.0067,0.0039,0.0155,0.0343,0.0344,0.0352,0.04,0.0352,0.0361,0.0359,0.0399,0.04,0.0401,0.0402,0,-0.0316,-0.0323,-0.0343,-0.0363,-0.039,-0.0421,-0.0421,-0.0434,-0.0428,-0.0409,-0.0432,-0.0343,-0.0281,-0.0139,-0.0054,0.0053,0.0116,0.0197,0.0214,0.0225,0.0139,0.0047,0.0008,0,0,0,0,0,-0.0299,-0.0311,-0.0327,-0.036,-0.0401,-0.0424,-0.0446,-0.0452,-0.0465,-0.0477,-0.0444,-0.0398,-0.0264,-0.0209,-0.0114,-0.0073,0.0144,0.0043,0.025,0.0355,0.0364,0.0287,0,0,0,0,0,0,-0.0285,-0.0296,-0.0316,-0.0357,-0.0401,-0.044,-0.0471,-0.0488,-0.0481,-0.0486,-0.042,-0.0388,-0.0258,-0.0337,-0.0125,-0.0095,0.0052,0.0103,0.0105,0.0349,0.0358,0.0365,0.0289,0,0,0,0,0]}]]